Location: Newark
(20.1200°S, 168.9600°E)
Time: 18:37:16
(UTC+00:00)

Hubble Space Telescope - Pass Details

Date: 29 November 2019
Orbit: 536 x 540 km, 28.5° (Epoch: 10 December)

Event Time Altitude Azimuth Distance (km) Brightness Sun altitude
Exits shadow 15:27:52 24° 163° (SSE) 1,148 2.9 -30.3°
Drops below altitude 10° 15:30:30 10° 127° (SE) 1,802 4.4 -29.8°
Sets 15:33:03 0° 114° (ESE) 2,694 5.4 -29.3°
